EHI
27 28 27 23 19 18 18 19 19 17 15 14 14 14 13 13 14 15 13 11 10 9 7 7 8 8 7 7 7 7 6 6 6 6 6 5 3 1 1 2 2 2 2
27 27 25 22 21 20 20 21 21 18 16 14 14 14 13 12 12 12 11 9 8 7 6 6 7 8 7 7 7 7 7 6 5 4 4 4 3 2 1 1 1 2 2
28 27 24 21 21 21 21 22 21 18 15 13 13 13 12 9 7 7 8 7 5 4 4 4 5 7 7 7 6 5 4 4 3 2 1 3 3 2 1 0 0 1 1
26 26 23 21 21 21 20 19 18 16 14 11 10 10 9 6 4 4 5 5 4 3 3 2 3 4 5 5 4 3 2 2 2 1 1 3 3 1 0 0 0 0 0
22 23 22 21 22 21 19 17 15 15 13 10 8 7 6 5 3 3 4 4 3 3 2 1 1 1 2 2 2 3 2 3 3 2 3 3 3 1 0 0 0 0 0
18 20 20 20 20 20 18 15 15 14 14 11 8 6 6 4 3 4 4 4 3 3 2 2 1 0 1 1 1 1 1 2 3 3 3 3 2 1 0 0 0 0 0
15 16 18 19 18 16 14 13 13 14 13 11 9 7 6 4 2 3 3 3 3 3 3 3 2 0 1 1 1 0 0 1 1 2 2 2 1 1 0 0 0 0 0
14 14 15 16 15 13 11 11 11 12 11 9 8 7 6 3 1 1 1 1 2 2 3 3 3 1 1 2 2 1 1 0 0 1 1 1 0 0 0 0 0 0 0
13 14 15 15 13 11 10 10 10 10 9 8 7 6 4 2 1 0 0 0 1 1 1 1 2 2 2 3 3 3 2 1 0 0 0 0 0 0 0 0 0 0 0
13 14 15 16 14 11 10 10 10 10 9 7 5 4 3 3 1 0 0 0 0 0 0 0 0 1 2 2 3 3 3 1 0 0 0 0 0 0 0 0 0 0 0
13 13 15 15 13 10 9 9 9 9 7 5 4 2 2 3 2 1 0 0 0 0 0 0 0 0 1 1 2 3 3 1 0 0 0 0 0 0 0 0 0 0 0
13 13 14 12 9 8 8 8 7 6 5 4 3 2 1 3 2 1 0 0 0 0 0 1 0 0 0 0 0 1 1 1 0 0 0 0 0 0 1 1 1 1 1
15 14 12 10 7 7 7 6 5 4 2 2 2 2 2 3 3 1 0 0 0 0 0 0 0 0 0 0 0 0 0 0 0 0 0 0 0 1 2 3 3 3 3
15 14 11 7 6 6 6 5 3 1 1 1 2 3 3 4 3 1 0 0 0 0 0 0 0 0 0 0 0 1 1 0 0 0 1 1 0 1 2 3 4 4 3
14 11 7 5 4 4 4 3 2 1 0 0 2 3 3 3 2 0 0 0 0 0 0 0 0 0 0 0 0 1 2 1 1 1 2 2 1 1 1 1 2 2 2
11 7 4 3 3 3 3 2 1 1 0 0 1 2 2 1 0 0 0 0 0 0 0 0 0 0 0 0 0 1 2 2 2 2 2 2 1 0 0 0 0 0 0
6 3 1 1 2 2 1 1 2 1 0 0 0 1 1 0 0 0 0 0 0 0 0 0 0 0 0 0 0 0 1 1 1 1 1 1 0 0 0 0 0 0 0
3 2 1 1 2 1 0 1 2 2 0 0 0 0 0 0 0 0 0 0 0 0 0 0 0 0 0 0 0 0 0 0 0 0 0 0 0 0 0 0 0 0 0
3 3 2 2 2 1 0 1 2 2 1 1 0 0 0 0 0 0 0 0 0 0 0 0 0 0 0 0 0 0 0 0 0 0 0 0 0 0 0 0 0 0 0
2 2 2 1 1 0 0 1 2 3 3 2 1 0 0 0 0 0 0 0 0 0 0 0 0 0 0 0 0 0 0 0 0 0 0 0 0 0 0 0 0 0 0
2 1 0 0 0 0 1 2 3 4 5 4 2 0 0 0 0 0 0 0 0 0 0 0 0 0 0 0 0 0 0 0 0 0 0 0 0 0 0 0 0 0 0
2 1 0 0 0 0 2 4 5 6 6 5 2 1 0 0 0 0 0 0 0 0 0 0 0 0 0 0 0 0 0 0 0 0 0 0 0 0 0 0 0 0 0
2 1 0 0 0 0 2 5 6 6 6 5 3 1 0 0 0 0 0 0 0 0 0 0 0 0 0 0 0 0 0 0 0 0 0 0 0 0 0 0 0 0 0
2 2 1 0 1 1 2 5 6 6 5 5 4 2 1 1 0 0 0 0 0 0 0 0 0 0 0 0 0 0 0 0 0 0 0 0 0 0 0 0 0 0 0
1 1 1 0 0 1 2 4 5 5 4 4 4 3 2 1 0 0 0 0 0 0 0 0 0 0 0 0 0 0 0 0 0 0 0 0 0 0 0 0 0 0 0
0 1 0 0 0 1 2 4 4 4 4 4 4 3 1 0 0 0 0 0 0 0 0 0 0 0 0 0 0 0 0 0 0 0 0 0 0 0 0 0 0 0 0
Wind_Speed
5 4 3 3 3 2 2 2 2 2 2 2 3 3 3 2 2 2 2 2 2 2 1 2 2 1 0 0 0 0 0 0 1 0 0 1 1 2 2 2 3 4 4
5 4 3 3 3 3 2 2 2 2 2 2 2 2 2 3 2 2 2 2 2 2 1 1 1 1 1 0 0 0 0 1 1 1 0 0 1 1 1 1 1 3 3
5 5 4 4 3 3 2 2 2 2 2 2 2 2 2 2 2 1 1 1 1 1 1 1 1 1 1 0 1 0 0 0 1 1 1 1 0 0 0 1 1 0 2
5 5 5 4 3 3 2 3 2 2 2 2 2 3 3 3 3 2 2 2 2 2 1 1 1 1 0 0 0 0 0 0 0 1 1 1 0 0 1 0 1 1 1
5 5 4 4 4 3 3 3 3 2 3 2 2 3 3 3 3 2 1 2 2 2 1 1 2 3 3 1 1 1 0 0 0 1 1 0 0 0 0 1 1 1 1
4 4 4 4 4 3 3 3 2 2 3 3 3 3 3 3 5 5 3 2 2 1 1 1 1 2 3 3 2 2 1 1 0 0 0 0 1 0 0 1 1 1 1
3 4 4 4 4 4 4 4 3 3 3 3 2 3 4 4 4 4 4 2 1 1 1 1 1 2 2 1 1 1 1 1 1 1 0 1 0 0 0 1 1 1 2
3 4 4 4 4 4 3 3 3 2 2 2 2 3 3 3 3 3 3 1 1 1 1 1 1 2 2 2 1 0 0 0 1 2 1 1 0 0 1 1 2 2 2
4 3 4 4 4 4 3 3 3 2 2 2 2 2 3 3 2 3 3 1 0 0 0 1 1 2 3 3 1 1 1 1 0 1 1 1 1 0 1 1 1 1 2
3 4 3 3 3 3 3 3 2 2 2 2 2 2 3 2 2 2 2 1 1 1 0 2 4 3 2 1 1 1 1 1 1 1 1 2 3 3 4 2 2 2 2
2 3 4 3 3 4 3 2 2 1 2 2 2 2 2 3 3 2 1 0 1 1 1 0 1 2 1 1 1 1 2 2 2 2 2 2 2 2 3 3 3 2 2
2 3 4 3 3 4 3 2 2 1 1 2 2 2 2 3 3 2 2 1 1 2 1 1 0 2 2 3 3 3 3 3 3 3 2 1 1 1 1 2 2 3 2
3 3 3 3 2 3 3 2 2 2 2 2 2 2 2 2 3 3 3 2 2 1 2 2 2 3 3 3 5 5 3 2 2 2 2 1 1 2 2 2 2 2 3
3 3 3 3 3 3 2 2 2 2 1 1 1 1 1 2 2 2 1 1 1 1 2 2 3 4 4 3 3 3 3 3 2 2 2 2 1 1 2 2 2 2 2
2 3 3 3 3 2 2 0 1 1 1 1 0 1 1 1 1 2 1 1 1 1 2 2 2 2 2 2 2 2 3 3 3 2 2 2 2 2 1 1 1 1 2
2 2 2 2 2 3 3 2 3 2 4 4 3 2 2 3 3 2 1 1 2 1 1 2 2 2 3 2 2 2 3 2 2 2 2 2 2 2 1 1 1 1 2
2 2 2 2 2 3 3 3 3 2 2 2 2 3 4 4 3 2 1 1 2 2 2 3 3 2 2 2 2 2 2 2 2 2 2 2 2 2 1 1 1 1 2
2 2 1 2 2 2 2 2 3 3 3 2 2 4 5 5 5 4 2 0 2 3 3 3 3 2 2 2 2 2 1 1 1 2 2 2 2 2 2 2 2 2 2
2 2 1 2 2 2 2 2 2 2 2 3 3 3 5 5 4 4 3 3 4 3 3 3 2 2 2 2 2 2 2 1 1 2 2 2 2 2 2 2 2 2 3
2 2 2 2 3 2 2 2 2 2 2 3 3 3 4 3 3 3 4 4 3 3 2 2 2 2 2 2 2 2 2 1 1 2 2 2 2 2 3 3 2 2 3
2 2 3 4 3 2 1 2 2 2 2 2 3 4 5 4 3 3 3 3 3 3 3 2 2 2 2 2 2 2 2 1 1 1 2 2 2 2 2 2 2 3 3
3 3 3 3 3 2 2 2 2 2 2 2 1 3 6 4 3 2 2 2 2 2 2 2 2 2 2 2 2 2 2 1 1 2 2 3 2 3 2 2 2 2 3
4 3 3 3 3 3 4 3 2 2 2 2 2 1 2 2 2 1 1 1 0 0 1 1 1 2 2 2 2 2 2 2 3 3 3 3 3 3 3 3 3 3 3
5 4 3 3 3 3 2 2 2 2 2 2 1 1 1 1 1 1 1 0 0 1 0 0 0 2 3 2 2 2 3 3 4 4 4 4 4 3 3 3 3 3 3
4 3 3 3 3 2 2 2 2 2 2 1 1 1 1 1 1 1 1 0 1 0 0 0 1 1 2 3 3 2 2 2 2 3 4 4 4 4 4 4 3 3 3
4 3 2 2 1 1 1 1 2 1 1 1 1 1 1 1 1 1 0 0 0 0 0 1 2 2 3 4 4 3 2 2 3 3 3 4 4 3 4 4 4 4 3
Wind_Direction
135 125 125 133 129 118 113 111 114 100 99 127 130 146 151 148 150 152 161 155 152 154 166 152 140 129 63 63 80 92 74 126 168 283 27 109 129 130 160 195 160 169 180
131 129 130 121 113 111 104 90 92 92 87 96 117 125 146 144 150 157 166 156 149 154 155 133 138 146 134 349 337 312 196 188 161 165 162 56 79 154 179 222 186 182 172
132 132 125 116 110 105 102 91 87 92 83 82 105 109 100 103 111 121 122 106 101 95 112 140 156 144 139 193 237 239 272 222 157 169 190 187 143 35 75 286 289 255 198
128 130 129 129 128 122 106 102 89 89 96 95 85 85 85 75 65 73 85 84 86 79 67 62 53 56 73 166 209 161 172 207 191 183 172 170 161 194 137 212 301 280 273
135 131 133 135 132 125 116 113 105 99 105 102 97 92 93 89 65 56 75 103 89 81 73 85 83 83 71 65 60 35 359 217 203 174 175 129 217 211 203 230 248 250 244
137 134 131 136 135 128 120 116 109 91 86 90 90 87 74 69 65 55 42 56 79 85 76 89 136 124 108 93 70 56 53 220 203 139 174 198 248 248 228 263 276 282 271
134 135 139 144 142 136 132 119 115 109 98 89 86 91 91 85 76 56 36 16 54 67 57 12 5 87 94 87 90 83 44 304 215 179 227 275 256 255 225 272 279 266 261
147 145 140 145 139 130 121 118 114 111 114 108 98 91 92 87 85 62 17 354 67 77 79 80 71 68 38 36 31 67 49 36 206 190 194 268 326 40 238 241 252 267 265
148 149 149 146 136 132 125 122 124 125 118 116 112 108 96 78 60 44 13 310 239 247 210 69 71 83 54 27 358 3 11 349 45 103 174 187 159 214 332 326 295 286 284
149 156 150 138 138 132 124 125 129 133 130 135 129 127 122 112 99 60 26 309 306 289 129 108 85 90 85 53 333 305 292 291 308 298 275 236 224 224 222 228 256 264 273
153 148 138 133 139 133 129 134 149 153 143 147 148 145 143 142 140 127 94 2 339 331 304 263 127 139 148 186 238 261 266 285 273 254 247 231 223 211 205 211 222 239 263
144 144 141 144 156 136 133 152 167 162 174 173 169 165 160 148 136 148 161 213 296 308 317 352 331 198 221 237 235 252 276 284 265 257 247 233 226 222 221 219 218 226 237
140 144 143 143 137 137 153 171 179 184 201 197 186 179 172 156 145 158 177 227 266 287 324 333 294 256 249 237 238 247 253 253 260 266 256 251 222 213 218 223 229 238 248
133 140 143 148 152 154 179 183 181 192 201 215 201 174 144 128 120 133 170 223 264 277 295 283 264 253 250 245 235 230 231 239 249 265 271 262 238 232 225 212 228 236 246
140 157 163 163 159 159 169 174 176 125 152 189 49 62 79 99 123 152 187 214 246 283 295 267 253 240 226 229 232 222 222 230 237 250 261 270 262 252 241 226 233 250 252
150 166 172 173 166 181 172 145 66 126 124 116 112 115 93 114 140 140 140 201 236 227 246 261 263 255 251 241 234 227 221 228 237 244 258 266 267 262 246 234 241 259 265
178 183 185 183 193 200 184 173 161 129 111 122 155 162 171 176 176 189 199 237 256 220 230 249 255 260 264 265 253 247 240 221 216 232 251 269 280 283 276 259 240 248 266
191 185 202 205 218 212 198 203 188 177 175 184 199 206 201 202 205 208 194 249 258 232 240 254 257 257 260 266 262 256 248 233 230 237 249 263 276 287 283 266 253 263 269
209 199 219 238 238 225 212 215 202 189 199 189 175 195 216 211 217 224 204 246 254 249 252 259 261 265 271 271 271 259 232 211 219 231 244 258 265 275 279 271 261 260 268
208 189 216 238 245 233 216 220 216 205 206 198 197 188 180 194 212 213 219 242 260 264 262 269 270 272 274 276 274 269 257 233 227 236 246 252 252 262 274 271 260 259 258
215 198 220 241 242 238 228 228 226 224 230 214 196 177 178 202 217 219 216 226 244 260 270 281 279 275 273 268 279 290 281 266 256 260 263 262 259 260 272 274 268 265 266
238 217 214 234 239 233 240 246 246 245 240 241 206 171 186 215 231 226 227 225 235 252 284 309 314 317 326 325 324 323 329 323 296 287 278 272 270 271 275 275 278 286 286
250 231 214 221 232 212 218 227 235 256 253 233 224 206 194 233 259 255 230 241 255 265 285 326 337 337 351 357 2 9 1 342 322 312 304 294 287 282 278 273 271 279 288
254 245 225 221 229 229 218 221 229 240 250 245 239 205 205 231 263 283 307 346 241 257 258 194 34 10 4 6 25 33 21 359 337 328 317 297 292 288 285 286 276 277 282
259 242 235 229 226 227 225 231 241 251 258 267 272 249 229 227 236 277 280 265 282 267 263 288 75 47 23 24 39 42 27 3 335 322 306 293 288 288 295 292 284 282 284
266 252 249 242 232 238 239 238 256 272 273 291 305 319 304 275 208 191 237 263 267 303 5 48 64 59 51 46 49 44 28 2 342 325 305 291 288 289 298 294 293 290 289